Regional Weather Roundup
Issued by NWS

Home | Current Version | Previous Version | Graphics & Text | Print | Product List | Glossary Off
Versions: 1 2 3 4 5 6 7 8 9 10 11 12 13 14 15 16 17 18 19 20 21 22 23 24 25 26 27 28 29 30 31 32 33 34 35 36 37 38 39 40 41 42 43 44 45 46 47 48 49 50

000
ASUS43 KLSX 060207
RWRMO

WEATHER SUMMARY FOR MISSOURI
NATIONAL WEATHER SERVICE SPRINGFIELD MO
900 PM CDT TUE MAY 05 2015

NOTE: "FAIR" INDICATES FEW OR NO CLOUDS BELOW 12,000 FEET WITH NO
       SIGNIFICANT WEATHER AND/OR OBSTRUCTIONS TO VISIBILITY.
       CURRENT SKY AND/OR WEATHER CONDITIONS ARE NOT AVAILABLE FOR
       CHILLICOTHE AND FARMINGTON.

MOZ001>031-035>038-043-044-053-054-060300-
...NORTHERN AND WESTERN MISSOURI...

CITY           SKY/WX    TMP DP  RH WIND       PRES   REMARKS
KANSAS CTY INT TSTM      65  61  87 MISG      30.05R
KANSAS C DTWN  CLOUDY    72  59  63 W8        30.02R
LEE`S SUMMIT   CLOUDY    69  60  73 E7        30.03S
ST JOSEPH      LGT RAIN  65  61  87 S6        30.02S
CHILLICOTHE      N/A     72  56  57 SE6       30.05S
KIRKSVILLE     MOCLDY    68  60  75 S8        30.08S

$$
MOZ066>068-077>081-088>096-101>105-060300-
...SOUTHWEST MISSOURI...

CITY           SKY/WX    TMP DP  RH WIND       PRES   REMARKS
SPRINGFIELD    PTCLDY    72  55  55 SE10      30.06R
JOPLIN         MOCLDY    72  54  53 SE7       30.02R

$$
MOZ032>034-039>042-045>050-055>058-069>072-060300-
...CENTRAL MISSOURI...

CITY           SKY/WX    TMP DP  RH WIND       PRES   REMARKS
COLUMBIA       MOCLDY    69  63  81 E7        30.08S
JEFFERSON CITY PTCLDY    70  63  78 SE7       30.07R
ROLLA          CLEAR     70  55  59 SE8       30.10R
SEDALIA        CLOUDY    68  62  81 E5        30.07R
WHITEMAN AFB   CLOUDY    66  61  83 E8        30.04R
WARRENSBURG    CLOUDY    66  61  82 E6        30.04R
OSAGE BEACH    PTCLDY    73  54  49 SE3       30.08S

$$
MOZ051-052-059>065-060300-
...EAST CENTRAL MISSOURI...

CITY           SKY/WX    TMP DP  RH WIND       PRES   REMARKS
ST LOUIS INTL  MOCLDY    78  55  44 SE9       30.13R
SPIRIT OF STL  CLEAR     68  59  73 SE3       30.11R
ST CHARLES     CLEAR     73  54  51 SE5       30.11R

$$
MOZ072>076-082>087-097>100-106>115-060300-
...SOUTH CENTRAL AND SOUTHEAST MISSOURI...

CITY           SKY/WX    TMP DP  RH WIND       PRES   REMARKS
CAPE GIRARDEAU PTCLDY    65  62  90 E6        30.14R
FARMINGTON     MOCLDY    70  59  68 E5        30.18R
POPLAR BLUFF   CLEAR     71  55  56 CALM      30.11R
WEST PLAINS    CLEAR     66  53  63 CALM      30.13R

$$



USA.gov is the U.S. government's official web portal to all federal, state and local government web resources and services.